Tracking 35237 objects as of 6-Sep-2026
HD Live streaming from Space Station
objects crossing your sky now

DELTA 1 DEB


DELTA 1 DEB is no longer on orbit


NORAD ID: 7089
Int'l Code: 1973-086CH
Launch date: November 6, 1973
Source: United States (US)
Launch site: AIR FORCE WESTERN TEST RANGE (AFWTR)
Decay date: 1997-03-06

Note: This is SATELLITE DEBRIS
Your satellite tracking list
Your tracking list is empty




NASA's NSSDC Master Catalog

Two Line Element Set (TLE):
1 07089U 73086CH  97064.67081895 -.99999999  11296-4 -28064-1 0  9996
2 07089 102.4771 110.4149 0019295 210.8422 176.3843 16.45223370104643
Source of the keplerian elements: AFSPC